Weather History for Meacham, OR

Change the Weather History Date:

Friday, October 26, 2012

  Actual Average Record
Temperature  
Mean Temperature 32 °F -  
Max Temperature 37 °F 48 °F 70 °F (2003)
Min Temperature 27 °F 24 °F 14 °F (2007)
Degree Days  
Heating Degree Days 33    
Moisture  
Dew Point 32 °F    
Average Humidity 92    
Maximum Humidity 96    
Minimum Humidity 82    
Precipitation  
Precipitation 0.06 in - - ()
Sea Level Pressure  
Sea Level Pressure 30.20 in    
Wind  
Wind Speed 0 mph (North)    
Max Wind Speed 4 mph    
Max Gust Speed -    
Visibility 8 miles    
Events Rain , Snow    
Averages and records for this station are not official NWS values.
T = Trace of Precipitation, MM = Missing Value Source: NWS Daily Summary

Daily Weather History Graph

Daily Weather History Graph

Search for Another Location

Airport:

Trip Planner

Search our weather history database for the weather conditions in past years. The results will help you decide how hot, cold, wet, or windy it might be!

Date:

Astronomy

Oct. 26, 2012 Rise Set
Actual Time 7:25 AM PDT 5:48 PM PDT
Civil Twilight 6:55 AM PDT 6:19 PM PDT
Nautical Twilight 6:20 AM PDT 6:53 PM PDT
Astronomical Twilight 5:46 AM PDT 7:28 PM PDT
Moon 4:12 PM PDT (10/26) 4:19 AM PDT (10/26)
Length of Visible Light 11h 24m
Length of Day
10h 23m
Waxing Gibbous, 91% of the Moon is Illuminated
Oct 26
Waxing Gibbous
Oct 29
Full
Nov 6
Last Quarter
Nov 13
New
Nov 20
First Quarter

Hourly Weather History & Observations

Time (PDT) Temp. Windchill Dew Point Humidity Pressure Visibility Wind Dir Wind Speed Gust Speed Precip Events Conditions
12:56 AM 27.0 °F - 25.0 °F 92% 30.41 in 10.0 mi Calm Calm - N/A   Clear
1:56 AM 28.9 °F - 28.0 °F 96% 30.40 in 10.0 mi Calm Calm - N/A   Clear
2:56 AM 30.0 °F - 28.9 °F 96% 30.38 in 10.0 mi Calm Calm - N/A   Clear
3:56 AM 30.0 °F - 28.0 °F 92% 30.36 in 10.0 mi Calm Calm - N/A   Clear
4:56 AM 30.0 °F - 28.0 °F 92% 30.35 in 10.0 mi Calm Calm - N/A   Clear
5:56 AM 30.9 °F - 28.9 °F 92% 30.33 in 10.0 mi Calm Calm - N/A   Mostly Cloudy
7:56 AM 32.0 °F - 28.9 °F 88% 30.31 in 10.0 mi Calm Calm - N/A   Overcast
8:56 AM 33.1 °F 30.0 °F 30.0 °F 89% 30.29 in 10.0 mi Variable 3.5 mph - N/A   Overcast
9:56 AM 34.0 °F - 30.0 °F 85% 30.27 in 10.0 mi Calm Calm - N/A   Mostly Cloudy
10:56 AM 35.1 °F - 30.0 °F 82% 30.24 in 10.0 mi Calm Calm - N/A   Overcast
11:56 AM 33.1 °F - 30.9 °F 92% 30.23 in 0.8 mi Calm Calm - 0.00 in Snow Light Snow
12:16 PM 35.6 °F - 32.0 °F 87% 30.13 in 9.0 mi Calm Calm - 0.01 in   Overcast
12:23 PM 35.6 °F 32.8 °F 32.0 °F 87% 30.12 in 10.0 mi Variable 3.5 mph - 0.01 in   Overcast
12:56 PM 34.0 °F 31.0 °F 30.9 °F 89% 30.19 in 8.0 mi Variable 3.5 mph - 0.01 in   Overcast
1:56 PM 35.1 °F - 30.9 °F 85% 30.18 in 5.0 mi Calm Calm - 0.00 in Snow Light Snow
2:56 PM 37.0 °F - 33.1 °F 86% 30.17 in 10.0 mi Calm Calm - 0.00 in Rain Light Rain
3:46 PM 35.6 °F - 33.8 °F 93% 30.11 in 2.0 mi Calm Calm - 0.01 in Snow Light Snow
3:56 PM 35.1 °F - 34.0 °F 96% 30.18 in 1.8 mi Calm Calm - 0.01 in Rain Light Rain
4:05 PM 35.6 °F - 33.8 °F 93% 30.11 in 3.0 mi Calm Calm - 0.01 in Rain Light Rain
4:56 PM 35.1 °F - 34.0 °F 96% 30.18 in 3.0 mi Calm Calm - 0.01 in Snow Light Snow
5:05 PM 35.6 °F - 33.8 °F 93% 30.11 in 2.5 mi Calm Calm - 0.01 in Snow Light Snow
5:13 PM 35.6 °F - 33.8 °F 93% 30.10 in 5.0 mi Calm Calm - 0.01 in   Overcast
5:23 PM 35.6 °F - 33.8 °F 93% 30.10 in 7.0 mi Calm Calm - 0.01 in   Overcast
5:56 PM 35.1 °F - 34.0 °F 96% 30.18 in 10.0 mi Calm Calm - 0.01 in   Overcast
6:44 PM 35.6 °F - 33.8 °F 93% 30.10 in 10.0 mi Calm Calm - N/A   Overcast
6:56 PM 35.1 °F - 34.0 °F 96% 30.17 in 10.0 mi Calm Calm - N/A   Overcast
7:32 PM 35.6 °F - 33.8 °F 93% 30.11 in 4.0 mi Calm Calm - 0.00 in Rain Light Rain
7:56 PM 35.1 °F - 34.0 °F 96% 30.18 in 3.0 mi Calm Calm - 0.01 in Rain Light Rain
8:56 PM 35.1 °F - 34.0 °F 96% 30.17 in 10.0 mi Calm Calm - 0.01 in   Overcast
9:30 PM 35.6 °F - 33.8 °F 93% 30.10 in 10.0 mi Calm Calm - N/A   Overcast
9:56 PM 34.0 °F - 33.1 °F 96% 30.17 in 10.0 mi Calm Calm - N/A   Overcast
10:56 PM 34.0 °F - 33.1 °F 96% 30.16 in 10.0 mi Calm Calm - N/A   Overcast
11:56 PM 35.1 °F - 34.0 °F 96% 30.16 in 8.0 mi Calm Calm - N/A   Overcast